Location: Orange
(33.2833°S, 149.1000°E)
Time: 07:20:39
(UTC+11:00)

Hubble Space Telescope - Pass Details

Date: 07 October 2022
Orbit: 530 x 534 km, 28.5° (Epoch: 06 December)

Event Time Altitude Azimuth Distance (km) Brightness Sun altitude
Exits shadow 04:04:28 15° 68° (ENE) 1,490 3.4 -30.3°
Drops below altitude 10° 04:05:17 10° 72° (ENE) 1,787 3.9 -30.1°
Sets 04:07:38 0° 79° (E) 2,678 5.0 -29.7°
